Kecskemet, Hungary

4:16 PM CEST on July 24, 2017 (GMT +0200)
Kecskemet

Weather History for LHKE - September, 2013

Change the Weather History Date:

Tuesday, September 3, 2013

  Actual Average (LHBP) Record (LHBP)
Temperature  
Mean Temperature 65 °F -  
Max Temperature 75 °F 71 °F 89 °F (2012)
Min Temperature 55 °F 51 °F 44 °F (2001)
Growing Degree Days 15 (Base 50)    
Moisture  
Dew Point 51 °F    
Average Humidity 59    
Maximum Humidity 82    
Minimum Humidity 50    
Precipitation  
Precipitation 0.00 in - - ()
Sea Level Pressure  
Sea Level Pressure 30.10 in    
Wind  
Wind Speed 14 mph ()    
Max Wind Speed 27 mph    
Max Gust Speed 40 mph    
Visibility 6.2 miles    
Events Rain    
Averages and records for this station are not official NWS values.
T = Trace of Precipitation, MM = Missing Value Source: Averaged Metar Reports

Daily Weather History Graph

Daily Weather History Graph

Search for Another Location

Airport or City:

Trip Planner

Search our weather history database for the weather conditions in past years. The results will help you decide how hot, cold, wet, or windy it might be!

Date:

Astronomy

Sep. 03, 2013 Rise Set
Actual Time 6:03 AM CEST 7:16 PM CEST
Civil Twilight 5:31 AM CEST 7:47 PM CEST
Nautical Twilight 4:53 AM CEST 8:25 PM CEST
Astronomical Twilight 4:13 AM CEST 9:05 PM CEST
Moon 3:55 AM CEST (9/3) 5:56 PM CEST (9/3)
Length of Visible Light 14h 16m
Length of Day
13h 13m
Waning Crescent, 4% of the Moon is Illuminated
Sep 3
Waning Crescent
Sep 5
New
Sep 12
First Quarter
Sep 19
Full
Sep 27
Last Quarter

Hourly Weather History & Observations

Time (CEST) Temp. Dew Point Humidity Pressure Visibility Wind Dir Wind Speed Gust Speed Precip Events Conditions
12:15 AM 60.8 °F 48.2 °F 63% 30.15 in - WSW 11.2 mph - N/A   Clear
12:45 AM 60.8 °F 48.2 °F 63% 30.15 in - WSW 11.2 mph - N/A   Clear
1:15 AM 62.6 °F 46.4 °F 55% 30.12 in - WSW 11.2 mph - N/A   Clear
1:45 AM 62.6 °F 46.4 °F 55% 30.12 in - WSW 11.2 mph - N/A   Clear
2:15 AM 62.6 °F 44.6 °F 52% 30.12 in - WSW 15.7 mph - N/A   Clear
2:45 AM 62.6 °F 44.6 °F 52% 30.12 in - WSW 13.4 mph - N/A   Clear
3:15 AM 62.6 °F 46.4 °F 55% 30.09 in - WSW 11.2 mph - N/A   Clear
3:45 AM - - N/A% - 6.2 mi West 11.2 mph - N/A   Overcast
4:15 AM 62.6 °F 44.6 °F 52% 30.09 in - WSW 13.4 mph 24.6 mph N/A   Clear
4:45 AM 62.6 °F 46.4 °F 55% 30.09 in - West 13.4 mph - N/A   Clear
5:07 AM 62.6 °F 46.4 °F 55% 30.06 in 6.2 mi West 11.2 mph - N/A Rain Light Rain
5:15 AM 62.6 °F 46.4 °F 55% 30.06 in 6.2 mi WSW 8.9 mph - N/A Rain Light Rain
5:32 AM 62.6 °F 46.4 °F 55% 30.06 in - WSW 8.9 mph - N/A   Clear
5:45 AM 62.6 °F 46.4 °F 55% 30.06 in 6.2 mi West 11.2 mph - N/A   Mostly Cloudy
6:15 AM 62.6 °F 46.4 °F 55% 30.06 in 6.2 mi WSW 8.9 mph - N/A   Mostly Cloudy
6:45 AM - - N/A% - 6.2 mi WNW 17.9 mph 29.1 mph N/A   Overcast
6:55 AM 64.4 °F 48.2 °F 56% 30.06 in 6.2 mi West 15.7 mph 26.8 mph N/A   Mostly Cloudy
7:15 AM 64.4 °F 48.2 °F 56% 30.06 in 6.2 mi West 20.1 mph - N/A   Mostly Cloudy
7:45 AM 64.4 °F 50.0 °F 59% 30.06 in 6.2 mi West 17.9 mph - N/A   Mostly Cloudy
8:15 AM 66.2 °F 50.0 °F 56% 30.06 in 6.2 mi West 17.9 mph - N/A   Scattered Clouds
8:45 AM 66.2 °F 50.0 °F 56% 30.06 in 6.2 mi West 17.9 mph 29.1 mph N/A   Scattered Clouds
9:15 AM 68.0 °F 51.8 °F 56% 30.06 in 6.2 mi WNW 22.4 mph - N/A   Mostly Cloudy
9:32 AM 66.2 °F 51.8 °F 60% 30.06 in 6.2 mi West 24.6 mph - N/A Rain Light Rain
9:45 AM - - N/A% - 6.2 mi WNW 17.9 mph 29.1 mph N/A   Overcast
9:58 AM 66.2 °F 53.6 °F 64% 30.09 in 6.2 mi WNW 26.8 mph 40.3 mph N/A Rain Light Rain
10:15 AM 66.2 °F 53.6 °F 64% 30.09 in 6.2 mi WNW 20.1 mph - N/A   Mostly Cloudy
10:34 AM 66.2 °F 53.6 °F 64% 30.09 in 6.2 mi WNW 20.1 mph - N/A Rain Light Rain
10:45 AM 66.2 °F 55.4 °F 68% 30.09 in 6.2 mi WNW 22.4 mph 33.6 mph N/A   Mostly Cloudy
11:08 AM 68.0 °F 55.4 °F 64% 30.09 in 6.2 mi WNW 22.4 mph 33.6 mph N/A Rain Light Rain Showers
11:15 AM 68.0 °F 55.4 °F 64% 30.09 in 6.2 mi WNW 22.4 mph - N/A Rain Light Rain Showers
11:45 AM 68.0 °F 53.6 °F 60% 30.09 in 6.2 mi WNW 22.4 mph 33.6 mph N/A   Mostly Cloudy
12:15 PM 69.8 °F 53.6 °F 56% 30.06 in 6.2 mi WNW 22.4 mph - N/A   Mostly Cloudy
12:45 PM - - N/A% - 6.2 mi WNW 20.1 mph 31.3 mph N/A   Mostly Cloudy
1:15 PM 71.6 °F 53.6 °F 53% 30.09 in 6.2 mi WNW 24.6 mph 35.8 mph N/A   Scattered Clouds
1:45 PM 73.4 °F 55.4 °F 53% 30.09 in 6.2 mi WNW 24.6 mph 35.8 mph N/A   Partly Cloudy
2:15 PM 73.4 °F 55.4 °F 53% 30.09 in 6.2 mi WNW 22.4 mph 33.6 mph N/A   Scattered Clouds
2:45 PM 75.2 °F 55.4 °F 50% 30.09 in 6.2 mi NW 22.4 mph 33.6 mph N/A   Scattered Clouds
3:15 PM 75.2 °F 55.4 °F 50% 30.09 in 6.2 mi NW 26.8 mph - N/A   Scattered Clouds
3:45 PM - - N/A% - 6.2 mi WNW 20.1 mph 31.3 mph N/A   Clear
4:15 PM 73.4 °F 55.4 °F 53% 30.06 in 6.2 mi WNW 22.4 mph - N/A   Scattered Clouds
4:45 PM 73.4 °F 55.4 °F 53% 30.06 in 6.2 mi WNW 22.4 mph - N/A   Scattered Clouds
5:15 PM 71.6 °F 55.4 °F 57% 30.09 in 6.2 mi WNW 17.9 mph - N/A   Partly Cloudy
5:45 PM 71.6 °F 55.4 °F 57% 30.09 in 6.2 mi WNW 20.1 mph 31.3 mph N/A   Partly Cloudy
6:15 PM 71.6 °F 51.8 °F 50% 30.09 in 6.2 mi WNW 17.9 mph - N/A   Partly Cloudy
6:45 PM - - N/A% - - NW 13.4 mph - N/A   Clear
7:15 PM 68.0 °F 50.0 °F 52% 30.12 in 6.2 mi WNW 15.7 mph - N/A   Partly Cloudy
7:45 PM 64.4 °F 50.0 °F 59% 30.15 in 6.2 mi WNW 13.4 mph - N/A   Partly Cloudy
8:15 PM 64.4 °F 50.0 °F 59% 30.15 in - WNW 11.2 mph - N/A   Clear
8:45 PM 62.6 °F 50.0 °F 63% 30.18 in - WNW 11.2 mph - N/A   Clear
9:15 PM 59.0 °F 50.0 °F 72% 30.18 in - WNW 8.9 mph - N/A   Clear
9:45 PM - - N/A% - - NW 6.7 mph - N/A   Clear
10:15 PM 57.2 °F 50.0 °F 77% 30.21 in - NW 6.7 mph - N/A   Clear
10:45 PM 57.2 °F 50.0 °F 77% 30.21 in - NW 6.7 mph - N/A   Clear
11:15 PM 55.4 °F 48.2 °F 77% 30.21 in - NNW 4.5 mph - N/A   Clear
11:45 PM 55.4 °F 50.0 °F 82% 30.24 in - NW 4.5 mph - N/A   Clear